Price, UT

12:16 AM MDT on May 21, 2018 (GMT -0600)
Carbon County

Weather History for KPUC - October, 2013

Change the Weather History Date:

Friday, October 4, 2013

  Actual Average Record
Temperature  
Mean Temperature 40 °F -  
Max Temperature 51 °F 67 °F 83 °F (1979)
Min Temperature 30 °F 41 °F 29 °F (1986)
Degree Days  
Heating Degree Days 25    
Moisture  
Dew Point 22 °F    
Average Humidity 50    
Maximum Humidity 64    
Minimum Humidity 26    
Precipitation  
Precipitation 0.00 in - - ()
Sea Level Pressure  
Sea Level Pressure 30.25 in    
Wind  
Wind Speed 9 mph (NNW)    
Max Wind Speed 16 mph    
Max Gust Speed 30 mph    
Visibility 10 miles    
Events Rain    
Averages and records for this station are not official NWS values.
T = Trace of Precipitation, MM = Missing Value Source: NWS Daily Summary

Daily Weather History Graph

Daily Weather History Graph

Search for Another Location

Airport or City:

Astronomy

Oct. 04, 2013 Rise Set
Actual Time 7:22 AM MDT 7:00 PM MDT
Civil Twilight 6:55 AM MDT 7:27 PM MDT
Nautical Twilight 6:24 AM MDT 7:58 PM MDT
Astronomical Twilight 5:52 AM MDT 8:29 PM MDT
Moon 7:01 AM MDT (10/4) 6:44 PM MDT (10/4)
Length of Visible Light 12h 31m
Length of Day
11h 37m
Waning Crescent, 0% of the Moon is Illuminated
Oct 4
Waning Crescent
Oct 4
New
Oct 11
First Quarter
Oct 18
Full
Oct 26
Last Quarter

Hourly Weather History & Observations

Time (MDT) Temp. Windchill Dew Point Humidity Pressure Visibility Wind Dir Wind Speed Gust Speed Precip Events Conditions
12:53 AM 35.1 °F 28.6 °F 19.9 °F 54% 30.05 in 10.0 mi North 8.1 mph - N/A   Partly Cloudy
1:53 AM 33.1 °F 26.1 °F 21.0 °F 61% 30.08 in 10.0 mi North 8.1 mph - N/A   Clear
2:53 AM 32.0 °F 26.4 °F 19.9 °F 61% 30.09 in 10.0 mi North 5.8 mph - N/A   Clear
3:53 AM 30.9 °F 24.3 °F 19.9 °F 64% 30.10 in 10.0 mi North 6.9 mph - N/A   Clear
4:53 AM 33.1 °F 30.0 °F 21.0 °F 61% 30.11 in 10.0 mi South 3.5 mph - N/A   Scattered Clouds
5:53 AM 34.0 °F 31.0 °F 19.9 °F 56% 30.12 in 10.0 mi NE 3.5 mph - N/A   Clear
6:53 AM 34.0 °F 31.0 °F 21.0 °F 59% 30.15 in 10.0 mi NNE 3.5 mph - N/A   Overcast
7:53 AM 36.0 °F 27.1 °F 23.0 °F 59% 30.18 in 10.0 mi NNW 13.8 mph 19.6 mph N/A   Mostly Cloudy
8:53 AM 39.9 °F 32.1 °F 21.9 °F 49% 30.19 in 10.0 mi NW 13.8 mph 20.7 mph N/A   Clear
9:53 AM 42.1 °F 34.9 °F 19.9 °F 41% 30.22 in 10.0 mi WNW 13.8 mph 20.7 mph N/A   Partly Cloudy
10:53 AM 44.1 °F 36.8 °F 19.0 °F 37% 30.23 in 10.0 mi NW 16.1 mph 25.3 mph N/A   Clear
11:53 AM 45.0 °F 39.3 °F 18.0 °F 34% 30.26 in 10.0 mi WNW 11.5 mph 21.9 mph N/A   Mostly Cloudy
12:53 PM 48.0 °F - 17.1 °F 29% 30.25 in 10.0 mi WNW 11.5 mph 18.4 mph N/A   Mostly Cloudy
1:53 PM 48.0 °F - 16.0 °F 28% 30.25 in 10.0 mi Calm Calm - N/A   Mostly Cloudy
2:53 PM 50.0 °F - 16.0 °F 26% 30.25 in 10.0 mi WNW 5.8 mph - N/A   Mostly Cloudy
3:34 PM 46.4 °F 40.1 °F 26.6 °F 46% 30.26 in 10.0 mi NNE 15.0 mph 29.9 mph 0.00 in Rain Light Rain
3:53 PM 45.0 °F 40.1 °F 21.9 °F 40% 30.32 in 10.0 mi NNW 9.2 mph 17.3 mph 0.00 in   Overcast
4:53 PM 44.1 °F 36.8 °F 27.0 °F 51% 30.34 in 10.0 mi North 16.1 mph - N/A   Overcast
5:53 PM 42.1 °F 34.9 °F 28.0 °F 58% 30.36 in 10.0 mi North 13.8 mph 20.7 mph N/A   Overcast
6:53 PM 42.1 °F 36.6 °F 28.0 °F 58% 30.38 in 10.0 mi North 9.2 mph - N/A   Overcast
7:53 PM 39.9 °F 35.8 °F 28.0 °F 63% 30.39 in 10.0 mi NNE 5.8 mph - N/A   Overcast
8:53 PM 37.9 °F 30.9 °F 23.0 °F 55% 30.39 in 10.0 mi North 10.4 mph - N/A   Clear
9:53 PM 39.0 °F 32.3 °F 21.9 °F 50% 30.38 in 10.0 mi West 10.4 mph - N/A   Clear
10:53 PM 37.9 °F 30.9 °F 21.9 °F 53% 30.39 in 10.0 mi West 10.4 mph - N/A   Clear
11:53 PM 39.0 °F 31.0 °F 21.9 °F 50% 30.39 in 10.0 mi NW 13.8 mph 23.0 mph N/A   Clear